iso_date,epoch_date,Year,Hour,Min,DOY,POS_DOY,Lat,Lon,BP,Ts,Ta,has_bp,has_ts,has_ta,BuoyID,Buoy_Type,Buoy_Owner,Logistics,Hemisphere
2020-07-06T18:00:00Z,1594058400,2020,18,0,188.75,188.75,61.359,-57.79,-999.00,5.99,-999.0,no,yes,no,300234068243870,SVPGHI,AOML,UNKNOWN,North
2020-07-06T19:02:55Z,1594062176,2020,19,3,188.7937,188.7937,61.349,-57.772,-999.00,5.99,-999.0,no,yes,no,300234068243870,SVPGHI,AOML,UNKNOWN,North
2020-07-06T20:00:57Z,1594065658,2020,20,1,188.834,188.834,61.341,-57.756,-999.00,5.99,-999.0,no,yes,no,300234068243870,SVPGHI,AOML,UNKNOWN,North
2020-07-06T21:01:00Z,1594069260,2020,21,1,188.8757,188.8757,61.333,-57.74,-999.00,5.98,-999.0,no,yes,no,300234068243870,SVPGHI,AOML,UNKNOWN,North
2020-07-06T22:00:02Z,1594072803,2020,22,0,188.9167,188.9167,61.33,-57.727,-999.00,5.97,-999.0,no,yes,no,300234068243870,SVPGHI,AOML,UNKNOWN,North
2020-07-06T23:00:57Z,1594076458,2020,23,1,188.959,188.959,61.328,-57.71,-999.00,5.96,-999.0,no,yes,no,300234068243870,SVPGHI,AOML,UNKNOWN,North
2020-07-07T00:01:00Z,1594080060,2020,0,1,189.0007,189.0007,61.324,-57.691,-999.00,5.95,-999.0,no,yes,no,300234068243870,SVPGHI,AOML,UNKNOWN,North
2020-07-07T01:00:02Z,1594083603,2020,1,0,189.0417,189.0417,61.322,-57.666,-999.00,5.95,-999.0,no,yes,no,300234068243870,SVPGHI,AOML,UNKNOWN,North
2020-07-07T02:01:58Z,1594087318,2020,2,2,189.0847,189.0847,61.32,-57.638,-999.00,5.95,-999.0,no,yes,no,300234068243870,SVPGHI,AOML,UNKNOWN,North
2020-07-07T03:00:00Z,1594090800,2020,3,0,189.125,189.125,61.318,-57.611,-999.00,5.95,-999.0,no,yes,no,300234068243870,SVPGHI,AOML,UNKNOWN,North
2020-07-07T04:00:02Z,1594094403,2020,4,0,189.1667,189.1667,61.316,-57.583,-999.00,5.94,-999.0,no,yes,no,300234068243870,SVPGHI,AOML,UNKNOWN,North
2020-07-07T04:59:57Z,1594097997,2020,5,0,189.2083,189.2083,61.315,-57.557,-999.00,5.93,-999.0,no,yes,no,300234068243870,SVPGHI,AOML,UNKNOWN,North
2020-07-07T06:00:00Z,1594101600,2020,6,0,189.25,189.25,61.316,-57.531,-999.00,5.91,-999.0,no,yes,no,300234068243870,SVPGHI,AOML,UNKNOWN,North
2020-07-07T07:00:02Z,1594105203,2020,7,0,189.2917,189.2917,61.32,-57.511,-999.00,5.92,-999.0,no,yes,no,300234068243870,SVPGHI,AOML,UNKNOWN,North
2020-07-07T07:59:57Z,1594108797,2020,8,0,189.3333,189.3333,61.326,-57.498,-999.00,5.91,-999.0,no,yes,no,300234068243870,SVPGHI,AOML,UNKNOWN,North
2020-07-07T09:00:00Z,1594112400,2020,9,0,189.375,189.375,61.333,-57.482,-999.00,5.91,-999.0,no,yes,no,300234068243870,SVPGHI,AOML,UNKNOWN,North
2020-07-07T10:00:02Z,1594116003,2020,10,0,189.4167,189.4167,61.339,-57.468,-999.00,5.93,-999.0,no,yes,no,300234068243870,SVPGHI,AOML,UNKNOWN,North
2020-07-07T10:59:57Z,1594119597,2020,11,0,189.4583,189.4583,61.349,-57.461,-999.00,5.95,-999.0,no,yes,no,300234068243870,SVPGHI,AOML,UNKNOWN,North
2020-07-07T12:00:00Z,1594123200,2020,12,0,189.5,189.5,61.356,-57.456,-999.00,5.99,-999.0,no,yes,no,300234068243870,SVPGHI,AOML,UNKNOWN,North
2020-07-07T13:02:03Z,1594126924,2020,13,2,189.5431,189.5431,61.369,-57.444,-999.00,6.04,-999.0,no,yes,no,300234068243870,SVPGHI,AOML,UNKNOWN,North
2020-07-07T13:59:57Z,1594130397,2020,14,0,189.5833,189.5833,61.379,-57.434,-999.00,6.08,-999.0,no,yes,no,300234068243870,SVPGHI,AOML,UNKNOWN,North
2020-07-07T15:00:00Z,1594134000,2020,15,0,189.625,189.625,61.39,-57.422,-999.00,6.08,-999.0,no,yes,no,300234068243870,SVPGHI,AOML,UNKNOWN,North
2020-07-07T16:00:02Z,1594137603,2020,16,0,189.6667,189.6667,61.398,-57.407,-999.00,6.1,-999.0,no,yes,no,300234068243870,SVPGHI,AOML,UNKNOWN,North
2020-07-07T16:59:57Z,1594141197,2020,17,0,189.7083,189.7083,61.405,-57.392,-999.00,6.11,-999.0,no,yes,no,300234068243870,SVPGHI,AOML,UNKNOWN,North
2020-07-07T18:00:00Z,1594144800,2020,18,0,189.75,189.75,61.413,-57.386,-999.00,6.11,-999.0,no,yes,no,300234068243870,SVPGHI,AOML,UNKNOWN,North
2020-07-07T19:01:03Z,1594148463,2020,19,1,189.7924,189.7924,61.422,-57.386,-999.00,6.16,-999.0,no,yes,no,300234068243870,SVPGHI,AOML,UNKNOWN,North
2020-07-07T19:59:57Z,1594151997,2020,20,0,189.8333,189.8333,61.431,-57.393,-999.00,6.14,-999.0,no,yes,no,300234068243870,SVPGHI,AOML,UNKNOWN,North
2020-07-07T21:00:00Z,1594155600,2020,21,0,189.875,189.875,61.447,-57.4,-999.00,6.11,-999.0,no,yes,no,300234068243870,SVPGHI,AOML,UNKNOWN,North
2020-07-07T22:00:02Z,1594159203,2020,22,0,189.9167,189.9167,61.461,-57.415,-999.00,6.11,-999.0,no,yes,no,300234068243870,SVPGHI,AOML,UNKNOWN,North
2020-07-07T22:59:57Z,1594162797,2020,23,0,189.9583,189.9583,61.479,-57.429,-999.00,6.09,-999.0,no,yes,no,300234068243870,SVPGHI,AOML,UNKNOWN,North
2020-07-08T00:01:00Z,1594166460,2020,0,1,190.0007,190.0007,61.496,-57.443,-999.00,6.09,-999.0,no,yes,no,300234068243870,SVPGHI,AOML,UNKNOWN,North
2020-07-08T01:01:03Z,1594170063,2020,1,1,190.0424,190.0424,61.509,-57.448,-999.00,6.06,-999.0,no,yes,no,300234068243870,SVPGHI,AOML,UNKNOWN,North
2020-07-08T01:59:57Z,1594173597,2020,2,0,190.0833,190.0833,61.521,-57.456,-999.00,6.05,-999.0,no,yes,no,300234068243870,SVPGHI,AOML,UNKNOWN,North
2020-07-08T03:00:00Z,1594177200,2020,3,0,190.125,190.125,61.529,-57.453,-999.00,6.04,-999.0,no,yes,no,300234068243870,SVPGHI,AOML,UNKNOWN,North
2020-07-08T04:01:03Z,1594180863,2020,4,1,190.1674,190.1674,61.536,-57.46,-999.00,6.01,-999.0,no,yes,no,300234068243870,SVPGHI,AOML,UNKNOWN,North
2020-07-08T04:59:57Z,1594184397,2020,5,0,190.2083,190.2083,61.541,-57.475,-999.00,5.99,-999.0,no,yes,no,300234068243870,SVPGHI,AOML,UNKNOWN,North
2020-07-08T06:00:00Z,1594188000,2020,6,0,190.25,190.25,61.547,-57.489,-999.00,5.97,-999.0,no,yes,no,300234068243870,SVPGHI,AOML,UNKNOWN,North
2020-07-08T07:00:02Z,1594191603,2020,7,0,190.2917,190.2917,61.554,-57.509,-999.00,5.95,-999.0,no,yes,no,300234068243870,SVPGHI,AOML,UNKNOWN,North
2020-07-08T07:59:57Z,1594195197,2020,8,0,190.3333,190.3333,61.565,-57.533,-999.00,5.95,-999.0,no,yes,no,300234068243870,SVPGHI,AOML,UNKNOWN,North
2020-07-08T09:04:01Z,1594199042,2020,9,4,190.3778,190.3778,61.574,-57.558,-999.00,5.95,-999.0,no,yes,no,300234068243870,SVPGHI,AOML,UNKNOWN,North
2020-07-08T10:00:02Z,1594202403,2020,10,0,190.4167,190.4167,61.583,-57.572,-999.00,5.95,-999.0,no,yes,no,300234068243870,SVPGHI,AOML,UNKNOWN,North
2020-07-08T11:00:57Z,1594206058,2020,11,1,190.459,190.459,61.593,-57.593,-999.00,5.94,-999.0,no,yes,no,300234068243870,SVPGHI,AOML,UNKNOWN,North
2020-07-08T13:00:02Z,1594213203,2020,13,0,190.5417,190.5417,61.604,-57.64,-999.00,5.96,-999.0,no,yes,no,300234068243870,SVPGHI,AOML,UNKNOWN,North
2020-07-08T14:01:58Z,1594216918,2020,14,2,190.5847,190.5847,61.608,-57.664,-999.00,5.96,-999.0,no,yes,no,300234068243870,SVPGHI,AOML,UNKNOWN,North
2020-07-08T15:00:00Z,1594220400,2020,15,0,190.625,190.625,61.612,-57.682,-999.00,6.0,-999.0,no,yes,no,300234068243870,SVPGHI,AOML,UNKNOWN,North
2020-07-08T16:00:02Z,1594224003,2020,16,0,190.6667,190.6667,61.615,-57.698,-999.00,5.98,-999.0,no,yes,no,300234068243870,SVPGHI,AOML,UNKNOWN,North
2020-07-08T16:59:57Z,1594227597,2020,17,0,190.7083,190.7083,61.617,-57.709,-999.00,6.01,-999.0,no,yes,no,300234068243870,SVPGHI,AOML,UNKNOWN,North
2020-07-08T18:01:00Z,1594231260,2020,18,1,190.7507,190.7507,61.618,-57.723,-999.00,6.0,-999.0,no,yes,no,300234068243870,SVPGHI,AOML,UNKNOWN,North
2020-07-08T19:00:02Z,1594234803,2020,19,0,190.7917,190.7917,61.622,-57.735,-999.00,5.98,-999.0,no,yes,no,300234068243870,SVPGHI,AOML,UNKNOWN,North
2020-07-08T20:03:59Z,1594238639,2020,20,4,190.8361,190.8361,61.624,-57.758,-999.00,5.99,-999.0,no,yes,no,300234068243870,SVPGHI,AOML,UNKNOWN,North
2020-07-08T21:04:01Z,1594242242,2020,21,4,190.8778,190.8778,61.607,-57.799,-999.00,5.99,-999.0,no,yes,no,300234068243870,SVPGHI,AOML,UNKNOWN,North
2020-07-08T22:02:55Z,1594245776,2020,22,3,190.9187,190.9187,61.627,-57.791,-999.00,5.99,-999.0,no,yes,no,300234068243870,SVPGHI,AOML,UNKNOWN,North
2020-07-08T22:59:57Z,1594249197,2020,23,0,190.9583,190.9583,61.628,-57.813,-999.00,5.99,-999.0,no,yes,no,300234068243870,SVPGHI,AOML,UNKNOWN,North
2020-07-09T00:01:00Z,1594252860,2020,0,1,191.0007,191.0007,61.625,-57.839,-999.00,5.99,-999.0,no,yes,no,300234068243870,SVPGHI,AOML,UNKNOWN,North
2020-07-09T01:00:02Z,1594256403,2020,1,0,191.0417,191.0417,61.624,-57.873,-999.00,5.99,-999.0,no,yes,no,300234068243870,SVPGHI,AOML,UNKNOWN,North
2020-07-09T02:00:57Z,1594260058,2020,2,1,191.084,191.084,61.62,-57.902,-999.00,5.99,-999.0,no,yes,no,300234068243870,SVPGHI,AOML,UNKNOWN,North
2020-07-09T03:01:00Z,1594263660,2020,3,1,191.1257,191.1257,61.619,-57.933,-999.00,5.98,-999.0,no,yes,no,300234068243870,SVPGHI,AOML,UNKNOWN,North
2020-07-09T04:01:03Z,1594267263,2020,4,1,191.1674,191.1674,61.62,-57.959,-999.00,5.98,-999.0,no,yes,no,300234068243870,SVPGHI,AOML,UNKNOWN,North
2020-07-09T05:01:58Z,1594270918,2020,5,2,191.2097,191.2097,61.621,-57.983,-999.00,5.99,-999.0,no,yes,no,300234068243870,SVPGHI,AOML,UNKNOWN,North
2020-07-09T06:01:00Z,1594274460,2020,6,1,191.2507,191.2507,61.617,-57.992,-999.00,5.98,-999.0,no,yes,no,300234068243870,SVPGHI,AOML,UNKNOWN,North
2020-07-09T07:03:56Z,1594278236,2020,7,4,191.2944,191.2944,61.615,-58.003,-999.00,5.98,-999.0,no,yes,no,300234068243870,SVPGHI,AOML,UNKNOWN,North
2020-07-09T07:59:57Z,1594281597,2020,8,0,191.3333,191.3333,61.613,-58.011,-999.00,5.98,-999.0,no,yes,no,300234068243870,SVPGHI,AOML,UNKNOWN,North
2020-07-09T09:00:00Z,1594285200,2020,9,0,191.375,191.375,61.608,-58.024,-999.00,5.98,-999.0,no,yes,no,300234068243870,SVPGHI,AOML,UNKNOWN,North
2020-07-09T10:01:03Z,1594288863,2020,10,1,191.4174,191.4174,61.601,-58.044,-999.00,5.97,-999.0,no,yes,no,300234068243870,SVPGHI,AOML,UNKNOWN,North
2020-07-09T11:02:58Z,1594292579,2020,11,3,191.4604,191.4604,61.596,-58.069,-999.00,5.98,-999.0,no,yes,no,300234068243870,SVPGHI,AOML,UNKNOWN,North
2020-07-09T12:00:00Z,1594296000,2020,12,0,191.5,191.5,61.589,-58.091,-999.00,6.0,-999.0,no,yes,no,300234068243870,SVPGHI,AOML,UNKNOWN,North
2020-07-09T13:01:03Z,1594299663,2020,13,1,191.5424,191.5424,61.58,-58.113,-999.00,6.02,-999.0,no,yes,no,300234068243870,SVPGHI,AOML,UNKNOWN,North
2020-07-09T14:00:57Z,1594303258,2020,14,1,191.584,191.584,61.576,-58.149,-999.00,6.09,-999.0,no,yes,no,300234068243870,SVPGHI,AOML,UNKNOWN,North
2020-07-09T15:01:00Z,1594306860,2020,15,1,191.6257,191.6257,61.561,-58.169,-999.00,6.13,-999.0,no,yes,no,300234068243870,SVPGHI,AOML,UNKNOWN,North
2020-07-09T16:00:02Z,1594310403,2020,16,0,191.6667,191.6667,61.554,-58.191,-999.00,6.15,-999.0,no,yes,no,300234068243870,SVPGHI,AOML,UNKNOWN,North
2020-07-09T16:59:57Z,1594313997,2020,17,0,191.7083,191.7083,61.547,-58.209,-999.00,6.11,-999.0,no,yes,no,300234068243870,SVPGHI,AOML,UNKNOWN,North
2020-07-09T18:00:00Z,1594317600,2020,18,0,191.75,191.75,61.542,-58.225,-999.00,6.1,-999.0,no,yes,no,300234068243870,SVPGHI,AOML,UNKNOWN,North
2020-07-09T19:01:03Z,1594321263,2020,19,1,191.7924,191.7924,61.537,-58.235,-999.00,6.09,-999.0,no,yes,no,300234068243870,SVPGHI,AOML,UNKNOWN,North
2020-07-09T20:02:58Z,1594324979,2020,20,3,191.8354,191.8354,61.535,-58.25,-999.00,6.05,-999.0,no,yes,no,300234068243870,SVPGHI,AOML,UNKNOWN,North
2020-07-09T21:04:01Z,1594328642,2020,21,4,191.8778,191.8778,61.53,-58.253,-999.00,6.06,-999.0,no,yes,no,300234068243870,SVPGHI,AOML,UNKNOWN,North
2020-07-09T22:00:02Z,1594332003,2020,22,0,191.9167,191.9167,61.524,-58.264,-999.00,6.07,-999.0,no,yes,no,300234068243870,SVPGHI,AOML,UNKNOWN,North
2020-07-09T22:59:57Z,1594335597,2020,23,0,191.9583,191.9583,61.518,-58.275,-999.00,6.06,-999.0,no,yes,no,300234068243870,SVPGHI,AOML,UNKNOWN,North
2020-07-10T00:01:00Z,1594339260,2020,0,1,192.0007,192.0007,61.511,-58.291,-999.00,6.04,-999.0,no,yes,no,300234068243870,SVPGHI,AOML,UNKNOWN,North
2020-07-10T01:00:02Z,1594342803,2020,1,0,192.0417,192.0417,61.504,-58.306,-999.00,6.03,-999.0,no,yes,no,300234068243870,SVPGHI,AOML,UNKNOWN,North
2020-07-10T02:01:58Z,1594346518,2020,2,2,192.0847,192.0847,61.497,-58.319,-999.00,6.01,-999.0,no,yes,no,300234068243870,SVPGHI,AOML,UNKNOWN,North
2020-07-10T03:00:00Z,1594350000,2020,3,0,192.125,192.125,61.489,-58.332,-999.00,6.01,-999.0,no,yes,no,300234068243870,SVPGHI,AOML,UNKNOWN,North
2020-07-10T04:00:02Z,1594353603,2020,4,0,192.1667,192.1667,61.48,-58.344,-999.00,6.0,-999.0,no,yes,no,300234068243870,SVPGHI,AOML,UNKNOWN,North
2020-07-10T04:59:57Z,1594357197,2020,5,0,192.2083,192.2083,61.473,-58.358,-999.00,5.98,-999.0,no,yes,no,300234068243870,SVPGHI,AOML,UNKNOWN,North
2020-07-10T06:00:00Z,1594360800,2020,6,0,192.25,192.25,61.466,-58.363,-999.00,5.99,-999.0,no,yes,no,300234068243870,SVPGHI,AOML,UNKNOWN,North
2020-07-10T07:00:02Z,1594364403,2020,7,0,192.2917,192.2917,61.459,-58.369,-999.00,5.98,-999.0,no,yes,no,300234068243870,SVPGHI,AOML,UNKNOWN,North
2020-07-10T07:59:57Z,1594367997,2020,8,0,192.3333,192.3333,61.451,-58.369,-999.00,5.98,-999.0,no,yes,no,300234068243870,SVPGHI,AOML,UNKNOWN,North
2020-07-10T09:00:00Z,1594371600,2020,9,0,192.375,192.375,61.45,-58.376,-999.00,5.98,-999.0,no,yes,no,300234068243870,SVPGHI,AOML,UNKNOWN,North
2020-07-10T10:00:02Z,1594375203,2020,10,0,192.4167,192.4167,61.444,-58.373,-999.00,6.03,-999.0,no,yes,no,300234068243870,SVPGHI,AOML,UNKNOWN,North
2020-07-10T11:00:57Z,1594378858,2020,11,1,192.459,192.459,61.439,-58.372,-999.00,6.07,-999.0,no,yes,no,300234068243870,SVPGHI,AOML,UNKNOWN,North
2020-07-10T12:00:00Z,1594382400,2020,12,0,192.5,192.5,61.432,-58.372,-999.00,6.1,-999.0,no,yes,no,300234068243870,SVPGHI,AOML,UNKNOWN,North
2020-07-10T13:00:02Z,1594386003,2020,13,0,192.5417,192.5417,61.423,-58.375,-999.00,6.14,-999.0,no,yes,no,300234068243870,SVPGHI,AOML,UNKNOWN,North
2020-07-10T13:59:57Z,1594389597,2020,14,0,192.5833,192.5833,61.415,-58.38,-999.00,6.43,-999.0,no,yes,no,300234068243870,SVPGHI,AOML,UNKNOWN,North
2020-07-10T15:00:00Z,1594393200,2020,15,0,192.625,192.625,61.407,-58.384,-999.00,6.57,-999.0,no,yes,no,300234068243870,SVPGHI,AOML,UNKNOWN,North
2020-07-10T16:00:02Z,1594396803,2020,16,0,192.6667,192.6667,61.397,-58.383,-999.00,6.74,-999.0,no,yes,no,300234068243870,SVPGHI,AOML,UNKNOWN,North
2020-07-10T16:59:57Z,1594400397,2020,17,0,192.7083,192.7083,61.387,-58.377,-999.00,6.63,-999.0,no,yes,no,300234068243870,SVPGHI,AOML,UNKNOWN,North
2020-07-10T18:00:00Z,1594404000,2020,18,0,192.75,192.75,61.378,-58.375,-999.00,6.7,-999.0,no,yes,no,300234068243870,SVPGHI,AOML,UNKNOWN,North
2020-07-10T19:00:02Z,1594407603,2020,19,0,192.7917,192.7917,61.369,-58.377,-999.00,7.16,-999.0,no,yes,no,300234068243870,SVPGHI,AOML,UNKNOWN,North
2020-07-10T19:59:57Z,1594411197,2020,20,0,192.8333,192.8333,61.362,-58.382,-999.00,7.09,-999.0,no,yes,no,300234068243870,SVPGHI,AOML,UNKNOWN,North
2020-07-10T22:00:02Z,1594418403,2020,22,0,192.9167,192.9167,61.352,-58.377,-999.00,6.98,-999.0,no,yes,no,300234068243870,SVPGHI,AOML,UNKNOWN,North
2020-07-10T22:59:57Z,1594421997,2020,23,0,192.9583,192.9583,61.346,-58.375,-999.00,6.88,-999.0,no,yes,no,300234068243870,SVPGHI,AOML,UNKNOWN,North
2020-07-11T00:00:00Z,1594425600,2020,0,0,193.0,193.0,61.342,-58.375,-999.00,6.75,-999.0,no,yes,no,300234068243870,SVPGHI,AOML,UNKNOWN,North
2020-07-11T01:00:02Z,1594429203,2020,1,0,193.0417,193.0417,61.338,-58.373,-999.00,6.67,-999.0,no,yes,no,300234068243870,SVPGHI,AOML,UNKNOWN,North
2020-07-11T01:59:57Z,1594432797,2020,2,0,193.0833,193.0833,61.336,-58.366,-999.00,6.63,-999.0,no,yes,no,300234068243870,SVPGHI,AOML,UNKNOWN,North
2020-07-11T03:00:00Z,1594436400,2020,3,0,193.125,193.125,61.329,-58.356,-999.00,6.56,-999.0,no,yes,no,300234068243870,SVPGHI,AOML,UNKNOWN,North
2020-07-11T04:00:02Z,1594440003,2020,4,0,193.1667,193.1667,61.32,-58.343,-999.00,6.56,-999.0,no,yes,no,300234068243870,SVPGHI,AOML,UNKNOWN,North
2020-07-11T04:59:57Z,1594443597,2020,5,0,193.2083,193.2083,61.307,-58.33,-999.00,6.52,-999.0,no,yes,no,300234068243870,SVPGHI,AOML,UNKNOWN,North
2020-07-11T06:00:00Z,1594447200,2020,6,0,193.25,193.25,61.291,-58.32,-999.00,6.66,-999.0,no,yes,no,300234068243870,SVPGHI,AOML,UNKNOWN,North
2020-07-11T07:00:02Z,1594450803,2020,7,0,193.2917,193.2917,61.278,-58.315,-999.00,6.59,-999.0,no,yes,no,300234068243870,SVPGHI,AOML,UNKNOWN,North
2020-07-11T07:59:57Z,1594454397,2020,8,0,193.3333,193.3333,61.267,-58.316,-999.00,6.57,-999.0,no,yes,no,300234068243870,SVPGHI,AOML,UNKNOWN,North
2020-07-11T09:00:00Z,1594458000,2020,9,0,193.375,193.375,61.26,-58.319,-999.00,6.58,-999.0,no,yes,no,300234068243870,SVPGHI,AOML,UNKNOWN,North
2020-07-11T10:00:02Z,1594461603,2020,10,0,193.4167,193.4167,61.258,-58.321,-999.00,6.58,-999.0,no,yes,no,300234068243870,SVPGHI,AOML,UNKNOWN,North
2020-07-11T10:59:57Z,1594465197,2020,11,0,193.4583,193.4583,61.257,-58.317,-999.00,6.59,-999.0,no,yes,no,300234068243870,SVPGHI,AOML,UNKNOWN,North
2020-07-11T12:00:00Z,1594468800,2020,12,0,193.5,193.5,61.256,-58.311,-999.00,6.6,-999.0,no,yes,no,300234068243870,SVPGHI,AOML,UNKNOWN,North
2020-07-11T13:00:02Z,1594472403,2020,13,0,193.5417,193.5417,61.254,-58.303,-999.00,6.57,-999.0,no,yes,no,300234068243870,SVPGHI,AOML,UNKNOWN,North
2020-07-11T13:59:57Z,1594475997,2020,14,0,193.5833,193.5833,61.255,-58.284,-999.00,6.69,-999.0,no,yes,no,300234068243870,SVPGHI,AOML,UNKNOWN,North
2020-07-11T15:00:00Z,1594479600,2020,15,0,193.625,193.625,61.245,-58.264,-999.00,6.73,-999.0,no,yes,no,300234068243870,SVPGHI,AOML,UNKNOWN,North
2020-07-11T16:01:03Z,1594483263,2020,16,1,193.6674,193.6674,61.235,-58.234,-999.00,6.8,-999.0,no,yes,no,300234068243870,SVPGHI,AOML,UNKNOWN,North
2020-07-11T17:00:57Z,1594486858,2020,17,1,193.709,193.709,61.228,-58.228,-999.00,6.82,-999.0,no,yes,no,300234068243870,SVPGHI,AOML,UNKNOWN,North
2020-07-11T18:00:00Z,1594490400,2020,18,0,193.75,193.75,61.218,-58.21,-999.00,6.9,-999.0,no,yes,no,300234068243870,SVPGHI,AOML,UNKNOWN,North
2020-07-11T19:00:02Z,1594494003,2020,19,0,193.7917,193.7917,61.208,-58.2,-999.00,6.9,-999.0,no,yes,no,300234068243870,SVPGHI,AOML,UNKNOWN,North
2020-07-11T19:59:57Z,1594497597,2020,20,0,193.8333,193.8333,61.2,-58.187,-999.00,6.91,-999.0,no,yes,no,300234068243870,SVPGHI,AOML,UNKNOWN,North
2020-07-11T21:00:00Z,1594501200,2020,21,0,193.875,193.875,61.191,-58.176,-999.00,6.88,-999.0,no,yes,no,300234068243870,SVPGHI,AOML,UNKNOWN,North
2020-07-11T22:00:02Z,1594504803,2020,22,0,193.9167,193.9167,61.19,-58.168,-999.00,6.89,-999.0,no,yes,no,300234068243870,SVPGHI,AOML,UNKNOWN,North
2020-07-11T22:59:57Z,1594508397,2020,23,0,193.9583,193.9583,61.185,-58.158,-999.00,6.88,-999.0,no,yes,no,300234068243870,SVPGHI,AOML,UNKNOWN,North
2020-07-12T00:00:00Z,1594512000,2020,0,0,194.0,194.0,61.183,-58.155,-999.00,6.86,-999.0,no,yes,no,300234068243870,SVPGHI,AOML,UNKNOWN,North
2020-07-12T01:01:03Z,1594515663,2020,1,1,194.0424,194.0424,61.184,-58.15,-999.00,6.8,-999.0,no,yes,no,300234068243870,SVPGHI,AOML,UNKNOWN,North
2020-07-12T02:00:57Z,1594519258,2020,2,1,194.084,194.084,61.188,-58.142,-999.00,6.75,-999.0,no,yes,no,300234068243870,SVPGHI,AOML,UNKNOWN,North
2020-07-12T03:00:00Z,1594522800,2020,3,0,194.125,194.125,61.195,-58.132,-999.00,6.68,-999.0,no,yes,no,300234068243870,SVPGHI,AOML,UNKNOWN,North
2020-07-12T04:00:02Z,1594526403,2020,4,0,194.1667,194.1667,61.198,-58.11,-999.00,6.64,-999.0,no,yes,no,300234068243870,SVPGHI,AOML,UNKNOWN,North
2020-07-12T04:59:57Z,1594529997,2020,5,0,194.2083,194.2083,61.198,-58.085,-999.00,6.58,-999.0,no,yes,no,300234068243870,SVPGHI,AOML,UNKNOWN,North
2020-07-12T06:00:00Z,1594533600,2020,6,0,194.25,194.25,61.197,-58.063,-999.00,6.51,-999.0,no,yes,no,300234068243870,SVPGHI,AOML,UNKNOWN,North
2020-07-12T07:00:02Z,1594537203,2020,7,0,194.2917,194.2917,61.193,-58.041,-999.00,6.52,-999.0,no,yes,no,300234068243870,SVPGHI,AOML,UNKNOWN,North
2020-07-12T08:01:58Z,1594540918,2020,8,2,194.3347,194.3347,61.179,-58.016,-999.00,6.52,-999.0,no,yes,no,300234068243870,SVPGHI,AOML,UNKNOWN,North
2020-07-12T09:01:00Z,1594544460,2020,9,1,194.3757,194.3757,61.174,-58.005,-999.00,6.51,-999.0,no,yes,no,300234068243870,SVPGHI,AOML,UNKNOWN,North
2020-07-12T10:00:02Z,1594548003,2020,10,0,194.4167,194.4167,61.17,-57.995,-999.00,6.51,-999.0,no,yes,no,300234068243870,SVPGHI,AOML,UNKNOWN,North
2020-07-12T10:59:57Z,1594551597,2020,11,0,194.4583,194.4583,61.166,-57.991,-999.00,6.5,-999.0,no,yes,no,300234068243870,SVPGHI,AOML,UNKNOWN,North
2020-07-12T12:00:00Z,1594555200,2020,12,0,194.5,194.5,61.169,-57.992,-999.00,6.51,-999.0,no,yes,no,300234068243870,SVPGHI,AOML,UNKNOWN,North
2020-07-12T13:00:02Z,1594558803,2020,13,0,194.5417,194.5417,61.173,-57.991,-999.00,6.5,-999.0,no,yes,no,300234068243870,SVPGHI,AOML,UNKNOWN,North
2020-07-12T14:03:59Z,1594562639,2020,14,4,194.5861,194.5861,61.178,-57.983,-999.00,6.51,-999.0,no,yes,no,300234068243870,SVPGHI,AOML,UNKNOWN,North
2020-07-12T15:01:00Z,1594566060,2020,15,1,194.6257,194.6257,61.182,-57.977,-999.00,6.54,-999.0,no,yes,no,300234068243870,SVPGHI,AOML,UNKNOWN,North
2020-07-12T16:03:56Z,1594569836,2020,16,4,194.6694,194.6694,61.188,-57.963,-999.00,6.55,-999.0,no,yes,no,300234068243870,SVPGHI,AOML,UNKNOWN,North
2020-07-12T17:03:59Z,1594573439,2020,17,4,194.7111,194.7111,61.2,-57.959,-999.00,6.55,-999.0,no,yes,no,300234068243870,SVPGHI,AOML,UNKNOWN,North
2020-07-12T18:04:01Z,1594577042,2020,18,4,194.7528,194.7528,61.196,-57.897,-999.00,6.57,-999.0,no,yes,no,300234068243870,SVPGHI,AOML,UNKNOWN,North
2020-07-12T19:01:03Z,1594580463,2020,19,1,194.7924,194.7924,61.193,-57.913,-999.00,6.57,-999.0,no,yes,no,300234068243870,SVPGHI,AOML,UNKNOWN,North
2020-07-12T19:59:57Z,1594583997,2020,20,0,194.8333,194.8333,61.193,-57.895,-999.00,6.59,-999.0,no,yes,no,300234068243870,SVPGHI,AOML,UNKNOWN,North
2020-07-12T21:00:00Z,1594587600,2020,21,0,194.875,194.875,61.192,-57.873,-999.00,6.59,-999.0,no,yes,no,300234068243870,SVPGHI,AOML,UNKNOWN,North
2020-07-12T22:03:56Z,1594591436,2020,22,4,194.9194,194.9194,-90.0,-180.0,-999.00,6.58,-999.0,no,yes,no,300234068243870,SVPGHI,AOML,UNKNOWN,North
2020-07-12T23:00:57Z,1594594858,2020,23,1,194.959,194.959,61.191,-57.85,-999.00,6.57,-999.0,no,yes,no,300234068243870,SVPGHI,AOML,UNKNOWN,North
2020-07-13T00:00:00Z,1594598400,2020,0,0,195.0,195.0,61.192,-57.846,-999.00,6.56,-999.0,no,yes,no,300234068243870,SVPGHI,AOML,UNKNOWN,North
2020-07-13T01:00:02Z,1594602003,2020,1,0,195.0417,195.0417,61.197,-57.848,-999.00,6.53,-999.0,no,yes,no,300234068243870,SVPGHI,AOML,UNKNOWN,North
2020-07-13T01:59:57Z,1594605597,2020,2,0,195.0833,195.0833,61.199,-57.854,-999.00,6.5,-999.0,no,yes,no,300234068243870,SVPGHI,AOML,UNKNOWN,North
2020-07-13T03:00:00Z,1594609200,2020,3,0,195.125,195.125,61.207,-57.851,-999.00,6.46,-999.0,no,yes,no,300234068243870,SVPGHI,AOML,UNKNOWN,North
2020-07-13T04:02:03Z,1594612924,2020,4,2,195.1681,195.1681,61.215,-57.848,-999.00,6.44,-999.0,no,yes,no,300234068243870,SVPGHI,AOML,UNKNOWN,North
2020-07-13T05:03:59Z,1594616639,2020,5,4,195.2111,195.2111,61.23,-57.838,-999.00,6.42,-999.0,no,yes,no,300234068243870,SVPGHI,AOML,UNKNOWN,North
2020-07-13T06:04:01Z,1594620242,2020,6,4,195.2528,195.2528,61.228,-57.826,-999.00,6.4,-999.0,no,yes,no,300234068243870,SVPGHI,AOML,UNKNOWN,North
2020-07-13T07:03:56Z,1594623836,2020,7,4,195.2944,195.2944,61.243,-57.825,-999.00,6.38,-999.0,no,yes,no,300234068243870,SVPGHI,AOML,UNKNOWN,North
2020-07-13T08:03:59Z,1594627439,2020,8,4,195.3361,195.3361,61.238,-57.791,-999.00,6.37,-999.0,no,yes,no,300234068243870,SVPGHI,AOML,UNKNOWN,North
2020-07-13T09:00:00Z,1594630800,2020,9,0,195.375,195.375,61.24,-57.777,-999.00,6.36,-999.0,no,yes,no,300234068243870,SVPGHI,AOML,UNKNOWN,North
2020-07-13T10:02:03Z,1594634524,2020,10,2,195.4181,195.4181,61.241,-57.764,-999.00,6.37,-999.0,no,yes,no,300234068243870,SVPGHI,AOML,UNKNOWN,North
2020-07-13T10:59:57Z,1594637997,2020,11,0,195.4583,195.4583,61.241,-57.76,-999.00,6.36,-999.0,no,yes,no,300234068243870,SVPGHI,AOML,UNKNOWN,North
2020-07-13T12:00:00Z,1594641600,2020,12,0,195.5,195.5,61.243,-57.763,-999.00,6.38,-999.0,no,yes,no,300234068243870,SVPGHI,AOML,UNKNOWN,North
2020-07-13T13:00:02Z,1594645203,2020,13,0,195.5417,195.5417,61.249,-57.767,-999.00,6.4,-999.0,no,yes,no,300234068243870,SVPGHI,AOML,UNKNOWN,North
2020-07-13T13:59:57Z,1594648797,2020,14,0,195.5833,195.5833,61.256,-57.767,-999.00,6.41,-999.0,no,yes,no,300234068243870,SVPGHI,AOML,UNKNOWN,North
2020-07-13T15:04:01Z,1594652642,2020,15,4,195.6278,195.6278,61.262,-57.772,-999.00,6.46,-999.0,no,yes,no,300234068243870,SVPGHI,AOML,UNKNOWN,North